This is the latest recevied weather packets stored in our database for station/object EA3HRE-13. If no packets are shown the sender has not sent any weather packets the latest 10 day(s).
| Time | Temp. | Humidity | Pressure | Rain* | Wind** | Luminosity | Snow |
|---|---|---|---|---|---|---|---|
| 1787579004 | 30° C | 100% | 1010.5 hPa | 0 mm | - | - | - |
| 1787578404 | 30.56° C | 100% | 1010.6 hPa | 0 mm | - | - | - |
| 1787577804 | 31.67° C | 100% | 1010.6 hPa | 0 mm | - | - | - |
| 1787577204 | 31.11° C | 100% | 1010.5 hPa | 0 mm | - | - | - |
| 1787576604 | 30.56° C | 100% | 1010.8 hPa | 0 mm | - | - | - |
| 1787576004 | 30.56° C | 100% | 1010.9 hPa | 0 mm | - | - | - |
| 1787575403 | 31.11° C | 100% | 1011.1 hPa | 0 mm | - | - | - |
| 1787574773 | 31.11° C | 100% | 1011.1 hPa | 0 mm | - | - | - |
| 1787574173 | 31.11° C | 100% | 1011.1 hPa | 0 mm | - | - | - |
| 1787573573 | 31.11° C | 100% | 1011.4 hPa | 0 mm | - | - | - |
| 1787572973 | 31.11° C | 100% | 1011.7 hPa | 0 mm | - | - | - |
| 1787572343 | 31.11° C | 100% | 1011.8 hPa | 0 mm | - | - | - |
| 1787571743 | 31.11° C | 100% | 1011.7 hPa | 0 mm | - | - | - |
| 1787571143 | 30.56° C | 100% | 1011.8 hPa | 0 mm | - | - | - |
| 1787570543 | 31.11° C | 100% | 1012.1 hPa | 0 mm | - | - | - |
| 1787569913 | 30° C | 100% | 1012 hPa | 0 mm | - | - | - |
| 1787569313 | 30° C | 100% | 1011.7 hPa | 0 mm | - | - | - |
| 1787568713 | 29.44° C | 100% | 1011.6 hPa | 0 mm | - | - | - |
| 1787568083 | 27.78° C | 100% | 1011.6 hPa | 0 mm | - | - | - |
| 1787567483 | 30° C | 100% | 1011.5 hPa | 0 mm | - | - | - |
| 1787566882 | 29.44° C | 100% | 1011.7 hPa | 0 mm | - | - | - |
| 1787566252 | 29.44° C | 100% | 1012 hPa | 0 mm | - | - | - |
| 1787565652 | 29.44° C | 100% | 1012.2 hPa | 0 mm | - | - | - |
| 1787565052 | 28.89° C | 100% | 1012.3 hPa | 0 mm | - | - | - |
| 1787564452 | 28.33° C | 100% | 1012.4 hPa | 0 mm | - | - | - |
* Rain latest hour (hover to see other rain measurements)
** Current wind speed in m/s (hover to see current wind gust speed)